Volver al catálogo

ARIANE 5 R/B

ActivoGTO
NORAD 32021·ROCKET BODY·🇫🇷 France

Lanzado Aug 14, 2007 desde Guiana Space Centre

Loading…

TLE

ActualizadoSource: Space-Track

Época: Sep 14, 2026, 20:12 UTC

1 32021U 07036D   26257.84175194  .00000203  00000-0  33159-3 0  9994
2 32021   2.5222  16.6057 7107066  55.5751 352.3009  2.47561423164921

Sigue ARIANE 5 R/B en tiempo real con AllMySat

Download on the App Store